Flag for Iran Weather past 2 weeks in Mashhad, Iran

Now
82 °F

Sunny.


Feels Like: 80 °F
Forecast: 55 / 71 °F
Wind: 9 mph from East

Location: Mashhad Airport

Current Time: Apr 28, 2015 at 2:58:39 PM

Latest Report: Apr 28, 2015 at 2:30 PM


Visibility: 10 mi

Pressure: 30.04 "Hg

Humidity: 10%

Dew point: 21 °F

Location of MashhadLocation

Historic Weather in Mashhad — Graph

°F

Mashhad temperature yesterday

Maximum temperature yesterday: 75 °F (at 5:00 PM)
Minimum temperature yesterday: 41 °F (at 5:00 AM)
Average temperature yesterday: 61 °F

Past Weeks' High & Low Weather Summary

 TemperatureHumidityPressure
High91 °F (Apr 22, 1:30 PM)77% (Apr 19, 2:30 AM)30.33 "Hg (Apr 19, 2:30 AM)
Low41 °F (Apr 27, 5:00 AM)6% (Apr 22, 2:00 PM)29.74 "Hg (Apr 14, 12:00 AM)
Average66 °F38%30.01 "Hg
* Reported Apr 13 1:30 PM — Apr 28 2:00 PM, Mashhad, Weather by CustomWeather, © 2015

Note: Actual official high and low records may vary slightly from our data, if they occured in-between our weather recording intervals... More about our weather records

Advertising

Mashhad weather history for previous 24 hours

 ConditionsComfort  
Time TempWeatherWind HumidityBarometerVisibility
2:00 PM
Tue, Apr 28
82 °FSunny.9 mph11%30.04 "Hg10 mi
1:30 PM81 °FSunny.7 mph13%30.07 "Hg10 mi
1:00 PM81 °FSunny.7 mph13%30.07 "Hg10 mi
12:30 PM79 °FSunny.7 mph15%30.07 "Hg10 mi
11:30 AM75 °FSunny.9 mph19%30.09 "Hg10 mi
11:00 AM73 °FSunny.7 mph20%30.09 "Hg10 mi
10:30 AM72 °FSunny.5 mph23%30.09 "Hg10 mi
10:00 AM68 °FPartly sunny.No wind24%30.12 "HgN/A
9:30 AM68 °FSunny.7 mph26%30.12 "Hg10 mi
9:00 AM66 °FSunny.5 mph28%30.12 "Hg10 mi
8:30 AM64 °FSunny.5 mph32%30.12 "Hg10 mi
8:00 AM63 °FSunny.5 mph32%30.12 "Hg10 mi
7:30 AM61 °FScattered clouds.No wind34%30.12 "HgN/A
6:50 AM57 °FPassing clouds.5 mph41%30.12 "HgN/A
6:30 AM55 °FPassing clouds.5 mph44%30.12 "HgN/A
5:50 AM55 °FPassing clouds.5 mph41%30.09 "HgN/A
5:30 AM55 °FPassing clouds.5 mph41%30.09 "HgN/A
4:50 AM55 °FClear.5 mph41%30.12 "Hg10 mi
4:30 AM55 °FClear.7 mph41%30.12 "Hg10 mi
4:00 AM55 °FClear.7 mph41%30.12 "Hg10 mi
3:30 AM54 °FClear.5 mph47%30.12 "Hg10 mi
2:50 AM55 °FClear.No wind41%30.12 "Hg10 mi
2:30 AM55 °FClear.No wind38%30.12 "Hg10 mi
2:00 AM57 °FClear.No wind36%30.12 "Hg10 mi
1:30 AM57 °FClear.5 mph33%30.12 "Hg10 mi
1:00 AM59 °FClear.5 mph34%30.15 "Hg10 mi
12:30 AM59 °FClear.5 mph31%30.15 "Hg10 mi
12:00 AM59 °FClear.7 mph31%30.18 "Hg10 mi
11:30 PM
Mon, Apr 27
61 °FClear.5 mph29%30.18 "Hg10 mi
11:00 PM61 °FClear.9 mph27%30.18 "Hg10 mi
10:30 PM63 °FClear.9 mph25%30.18 "Hg10 mi
10:00 PM63 °FClear.7 mph25%30.18 "Hg10 mi
9:30 PM61 °FClear.7 mph27%30.18 "Hg10 mi
9:00 PM63 °FClear.7 mph25%30.18 "Hg10 mi
8:30 PM63 °FSunny.9 mph27%30.15 "Hg10 mi
8:00 PM66 °FSunny.12 mph22%30.15 "Hg10 mi
7:30 PM66 °FSunny.16 mph22%30.15 "Hg10 mi
7:00 PM72 °FSunny.9 mph15%30.15 "Hg10 mi
6:30 PM73 °FSunny.12 mph15%30.15 "Hg10 mi
6:00 PM73 °FSunny.7 mph14%30.15 "Hg10 mi
5:30 PM73 °FSunny.9 mph15%30.15 "Hg10 mi
5:00 PM75 °FSunny.9 mph15%30.15 "Hg10 mi
4:30 PM73 °FSunny.12 mph17%30.15 "Hg10 mi
4:00 PM73 °FSunny.12 mph17%30.15 "Hg10 mi
3:30 PM73 °FSunny.14 mph17%30.15 "Hg10 mi
3:00 PM73 °FSunny.9 mph19%30.18 "Hg10 mi
2:30 PM73 °FSunny.12 mph19%30.18 "Hg10 mi
2:00 PM72 °FSunny.9 mph22%30.18 "Hg10 mi
Weather by CustomWeather, © 2015

See weather overviewHow to use our weather pages